[[{"header":{"parameterUnit":"m.s-1","parameterCategory":1,"la1":30.2991,"la2":30.254,"lo1":-89.0895,"lo2":-89.0444,"dy":0.0017,"dx":0.0017,"nx":28,"ny":28,"refTime":"2023-07-22T03:00:00:Z","depth":0,"parameterNumber":2,"parameterNumberName":"U-component_of_WINDS"},"data":[0,0,0,0,0,0,0,0,0,0,0,0,0,0,0,0,0,0,0,0,0,0,0,0,0,0,0,0,0,0,0,0,0,0,0,0,0,0,0,0,0,0,0,0,0,0,0,0,0,0,0,0,0,0,0,0,0,0,1.5473,1.5474,0,1.557,1.5571,1.5572,1.5597,1.5596,1.5595,1.5595,1.5694,1.5697,1.57,0,0,0,0,0,0,0,0,0,0,0,0,0,1.5308,1.5311,1.5473,1.5474,1.5475,1.557,1.5571,1.5572,1.5597,1.5596,1.5595,1.5595,1.5693,1.5696,1.57,0,0,0,0,0,0,0,0,0,0,0,0,0,1.539,1.5312,1.5473,1.5499,1.5502,1.557,1.5571,1.5573,1.5597,1.5596,1.5595,1.5594,1.5691,1.5696,1.5701,1.5749,0,0,1.5715,1.5717,0,0,0,0,0,0,0,0,1.5385,1.5396,1.5494,1.5497,1.5501,1.557,1.5549,1.5632,1.5597,1.5561,1.5595,1.5594,1.5653,1.5661,1.5681,1.5753,1.5758,1.5716,1.5719,1.5721,1.5722,0,0,0,0,0,0,0,1.5379,1.5392,1.5511,1.5495,1.55,1.5505,1.5516,1.5565,1.5611,1.5564,1.5566,1.5577,1.5655,1.5677,1.5684,1.5759,1.5716,1.572,1.5723,1.5725,1.5875,1.5876,0,0,0,0,0,0,1.5369,1.5387,1.5508,1.5514,1.544,1.5509,1.5521,1.5549,1.5611,1.5619,1.5578,1.5578,1.5669,1.5678,1.5687,1.5747,1.5721,1.5725,1.5728,1.5874,1.5875,1.5876,0,0,0,0,0,0,1.5366,1.538,1.5504,1.5451,1.5467,1.5513,1.5544,1.5551,1.5573,1.5621,1.5629,1.5591,1.5669,1.5681,1.5733,1.5751,1.5727,1.5732,1.5872,1.5874,1.5876,1.5867,0,0,0,0,0,0,1.5361,1.5378,1.5397,1.5451,1.547,1.5549,1.5545,1.5554,1.5581,1.5582,1.5636,1.5644,1.5669,1.5726,1.5738,1.5757,1.5736,1.5871,1.5873,1.5875,1.5866,1.5868,1.587,0,0,0,0,0,1.5355,1.5391,1.5398,1.5413,1.5495,1.555,1.556,1.5588,1.5583,1.5602,1.5633,1.5642,1.5747,1.5731,1.5745,1.5765,1.587,1.5873,1.5875,1.5865,1.5867,1.587,0,0,0,0,0,0,1.5337,1.5398,1.5407,1.5462,1.55,1.5554,1.5578,1.559,1.5631,1.563,1.5663,1.5675,1.5725,1.5751,1.5732,1.5815,1.5809,1.5814,1.5796,1.5799,1.5801,1.5793,1.574,0,0,0,0,0,1.534,1.538,1.5431,1.5474,1.5493,1.5532,1.5557,1.5576,1.5617,1.5633,1.5668,1.5707,1.5749,1.5776,1.5817,1.587,1.5882,1.5891,1.5893,1.5894,1.5898,1.5927,1.5932,1.5884,1.5884,1.5884,0,0,1.5345,1.5384,1.5407,1.5472,1.5504,1.5543,1.5546,1.5588,1.5618,1.5639,1.5691,1.5718,1.5764,1.5817,1.5842,1.584,1.5914,1.5898,1.5898,1.5902,1.593,1.5935,1.5939,1.5886,1.5886,1.5885,0,0,1.5376,1.5409,1.5448,1.5481,1.5529,1.5555,1.5564,1.5616,1.5635,1.5687,1.5704,1.574,1.5811,1.5843,1.5869,1.5911,1.5921,1.5924,1.5934,1.5962,1.5966,1.5969,1.5983,1.5988,1.5928,1.5928,1.5928,0,1.5376,1.5437,1.5467,1.5509,1.5536,1.5558,1.5598,1.5627,1.5687,1.5705,1.5702,1.5792,1.5825,1.5885,1.5895,1.5916,1.5927,1.5917,1.5963,1.5967,1.597,1.5984,1.5989,1.5928,1.5928,1.5928,1.5928,0,1.5435,1.5477,1.5503,1.556,1.5591,1.5631,1.5667,1.5694,1.571,1.5736,1.5789,1.5829,1.5878,1.5894,1.591,1.5956,1.5953,1.5957,1.595,1.5974,1.5988,1.5993,1.5927,1.5927,1.5928,1.5928,0,0,1.5456,1.5529,1.5538,1.5563,1.5619,1.5652,1.5693,1.5741,1.5764,1.5804,1.5839,1.5899,1.5902,1.5931,1.5951,1.5976,1.6005,1.5976,1.5977,1.5979,1.6058,1.6054,1.606,1.6013,1.6014,1.6015,1.6054,0,1.5492,1.5566,1.5594,1.5655,1.5694,1.5715,1.5751,1.5789,1.5814,1.5851,1.5879,1.5921,1.5922,1.594,1.5966,1.5996,1.6022,1.5994,1.6045,1.6046,1.6031,1.6067,1.6064,1.6098,1.6059,1.606,1.6061,0,1.5543,1.5584,1.5649,1.5699,1.5716,1.5748,1.5794,1.5829,1.5872,1.5889,1.5921,1.594,1.5983,1.5975,1.6036,1.6016,1.6039,1.6057,1.6059,1.6064,1.6054,1.6072,1.611,1.6114,1.607,1.6069,1.6068,0,1.555,1.5622,1.5669,1.5691,1.5751,1.5773,1.5798,1.5841,1.5868,1.5909,1.5926,1.5972,1.5996,1.603,1.606,1.6052,1.6117,1.6112,1.6132,1.6131,1.6143,1.6142,1.6184,1.616,1.616,1.616,1.616,0,1.5587,1.5625,1.5673,1.5702,1.5746,1.5778,1.582,1.5847,1.5885,1.5919,1.5941,1.5973,1.6011,1.6048,1.6071,1.6117,1.6128,1.6143,1.6148,1.614,1.6138,1.6154,1.6152,1.6161,1.6161,1.6161,1.6161,0,1.5601,1.5635,1.5688,1.5741,1.5755,1.5785,1.5829,1.5858,1.5885,1.5929,1.5941,1.5983,1.6027,1.6061,1.6119,1.6134,1.6183,1.6189,1.6168,1.617,1.6188,1.6185,1.6241,1.625,1.6221,1.6221,1.6221,0,1.5621,1.5651,1.5707,1.5732,1.5758,1.5798,1.5825,1.5859,1.5887,1.5938,1.596,1.6006,1.6045,1.6115,1.615,1.6194,1.6201,1.6218,1.6208,1.6198,1.62,1.6197,1.62,1.6219,1.6219,1.6219,1.6219,0,1.5653,1.5668,1.5708,1.5753,1.5786,1.5823,1.5861,1.588,1.592,1.595,1.5996,1.6026,1.6084,1.6129,1.6177,1.6204,1.6218,1.6222,1.6229,1.622,1.6206,1.6212,1.617,1.622,1.622,1.622,1.622,1.622,1.567,1.5698,1.5741,1.5784,1.5816,1.5851,1.588,1.5911,1.595,1.6,1.6018,1.6065,1.6107,1.6172,1.62,1.6236,1.6237,1.6246,1.6249,1.625,1.6249,1.6201,1.6245,1.6245,1.6245,1.6245,1.6246,0,1.5702,1.5731,1.5771,1.5823,1.5857,1.5868,1.591,1.5937,1.5978,1.6017,1.6054,1.6106,1.615,1.619,1.6235,1.6257,1.6265,1.6268,1.6266,1.6272,1.6247,1.6236,1.6261,1.6261,1.6261,1.6261,1.6261,1.6261,1.5722,1.5769,1.579,1.5852,1.5881,1.5928,1.5951,1.5983,1.6013,1.6071,1.6107,1.6133,1.6171,1.622,1.6261,1.6271,1.6286,1.6288,1.6299,1.6275,1.6273,1.6271,1.6261,1.6291,1.6291,1.6321,1.6321,1.6321]},{"header":{"parameterUnit":"m.s-1","parameterCategory":1,"la1":30.2991,"la2":30.254,"lo1":-89.0895,"lo2":-89.0444,"dy":0.0017,"dx":0.0017,"nx":28,"ny":28,"refTime":"2023-07-22T03:00:00:Z","depth":0,"parameterNumber":3,"parameterNumberName":"V-component_of_WINDS"},"data":[0,0,0,0,0,0,0,0,0,0,0,0,0,0,0,0,0,0,0,0,0,0,0,0,0,0,0,0,0,0,0,0,0,0,0,0,0,0,0,0,0,0,0,0,0,0,0,0,0,0,0,0,0,0,0,0,0,0,4.5488,4.5488,0,4.552,4.552,4.5521,4.5472,4.5471,4.5469,4.5467,4.5496,4.5498,4.55,0,0,0,0,0,0,0,0,0,0,0,0,0,4.538,4.5383,4.5488,4.5488,4.5489,4.552,4.552,4.5521,4.5473,4.547,4.5468,4.5467,4.5495,4.5498,4.5501,0,0,0,0,0,0,0,0,0,0,0,0,0,4.5421,4.5383,4.5488,4.5469,4.5467,4.552,4.552,4.5521,4.5473,4.547,4.5468,4.5466,4.5494,4.5498,4.5501,4.5573,0,0,4.5512,4.5513,0,0,0,0,0,0,0,0,4.5419,4.5425,4.5471,4.547,4.5469,4.549,4.5493,4.5538,4.5474,4.5471,4.5467,4.5464,4.5496,4.5499,4.551,4.5574,4.5575,4.5512,4.5514,4.5516,4.5517,0,0,0,0,0,0,0,4.5416,4.5423,4.55,4.5472,4.547,4.5457,4.546,4.5501,4.5497,4.5471,4.5467,4.5472,4.5494,4.5507,4.551,4.5576,4.5512,4.5515,4.5517,4.5518,4.5699,4.5702,0,0,0,0,0,0,4.5416,4.5421,4.5499,4.5501,4.5437,4.5461,4.5464,4.5485,4.5496,4.5495,4.5474,4.547,4.5502,4.5506,4.5511,4.5595,4.5516,4.5519,4.5521,4.5696,4.57,4.5703,0,0,0,0,0,0,4.5414,4.5424,4.5498,4.5461,4.5469,4.5465,4.5489,4.5487,4.55,4.5499,4.5497,4.5488,4.55,4.5506,4.5558,4.5596,4.552,4.5524,4.5693,4.5697,4.5701,4.5765,0,0,0,0,0,0,4.5411,4.5423,4.5452,4.5462,4.5471,4.5546,4.5492,4.549,4.5506,4.5501,4.5511,4.5511,4.5499,4.5553,4.5561,4.5599,4.5526,4.569,4.5695,4.57,4.5759,4.577,4.578,0,0,0,0,0,4.5408,4.5468,4.5453,4.5463,4.5507,4.5548,4.5553,4.554,4.551,4.5537,4.5536,4.551,4.559,4.5559,4.5568,4.5607,4.5687,4.5693,4.5699,4.5754,4.5768,4.578,0,0,0,0,0,0,4.5461,4.5469,4.5453,4.5518,4.5533,4.554,4.5575,4.5555,4.5578,4.5571,4.5552,4.5555,4.561,4.5614,4.5578,4.5676,4.5633,4.5642,4.5672,4.5685,4.5696,4.5693,4.5529,0,0,0,0,0,4.548,4.5515,4.5519,4.5576,4.5585,4.5579,4.5596,4.5584,4.5598,4.5604,4.5607,4.562,4.5648,4.5667,4.5693,4.5759,4.576,4.5791,4.5801,4.581,4.5817,4.5852,4.5865,4.5723,4.5722,4.5722,0,0,4.5521,4.5529,4.5552,4.5587,4.5597,4.5632,4.5584,4.5623,4.5647,4.5609,4.5658,4.5661,4.5674,4.5734,4.576,4.5738,4.5857,4.5818,4.5824,4.5827,4.5859,4.5873,4.5885,4.5727,4.5726,4.5725,0,0,4.5612,4.5622,4.5671,4.5682,4.5698,4.5694,4.5705,4.5715,4.5716,4.5765,4.5737,4.5766,4.5815,4.5825,4.5837,4.5932,4.5908,4.5941,4.5995,4.6029,4.604,4.605,4.6083,4.6095,4.5948,4.5948,4.5948,0,4.5659,4.5712,4.5697,4.5738,4.5754,4.5722,4.577,4.5781,4.5805,4.5816,4.5791,4.5852,4.5859,4.592,4.5943,4.5954,4.5965,4.5939,4.604,4.605,4.6059,4.609,4.6102,4.5952,4.5951,4.5951,4.5951,0,4.5769,4.5805,4.5842,4.5867,4.5887,4.5931,4.5922,4.5944,4.593,4.5928,4.5977,4.5985,4.6011,4.6025,4.6011,4.6084,4.607,4.6043,4.5999,4.6076,4.6105,4.6117,4.5957,4.5956,4.5955,4.5954,0,0,4.5894,4.5911,4.5925,4.5935,4.5951,4.5978,4.602,4.6047,4.6065,4.6082,4.6116,4.6158,4.6134,4.6147,4.6135,4.6165,4.6238,4.6134,4.6134,4.6153,4.6317,4.6337,4.6351,4.6223,4.6225,4.6227,4.6316,0,4.5984,4.6059,4.6047,4.6118,4.6151,4.6121,4.6157,4.617,4.6169,4.6195,4.6193,4.6223,4.6189,4.6196,4.6225,4.6223,4.6271,4.6217,4.6253,4.6254,4.625,4.6367,4.6388,4.6471,4.6327,4.6329,4.6331,0,4.61,4.6122,4.6197,4.6207,4.6221,4.6254,4.6277,4.6303,4.6317,4.6313,4.6329,4.631,4.6351,4.6307,4.6362,4.6325,4.6339,4.634,4.6343,4.6346,4.6297,4.6371,4.6498,4.651,4.6348,4.6347,4.6346,0,4.6183,4.6232,4.6283,4.6293,4.6306,4.633,4.6336,4.6347,4.6364,4.6384,4.6394,4.6418,4.6431,4.645,4.6438,4.6407,4.6494,4.645,4.6492,4.6492,4.6511,4.651,4.6641,4.6521,4.6521,4.6521,4.652,0,4.6285,4.6332,4.632,4.6352,4.6403,4.6388,4.6438,4.6441,4.6451,4.6481,4.6456,4.6484,4.6467,4.6494,4.6485,4.6531,4.6537,4.6535,4.6532,4.6537,4.6537,4.6545,4.6539,4.6524,4.6523,4.6523,4.6522,0,4.6386,4.6381,4.6434,4.6443,4.6446,4.6483,4.6489,4.6517,4.6514,4.6552,4.656,4.6555,4.6585,4.6576,4.6608,4.6601,4.666,4.665,4.6656,4.6653,4.6696,4.6692,4.6836,4.6854,4.6723,4.6725,4.6726,0,4.6451,4.6487,4.6499,4.6518,4.6527,4.6558,4.6575,4.6561,4.658,4.6597,4.6623,4.6652,4.6673,4.6723,4.6721,4.6745,4.6735,4.6783,4.6738,4.6742,4.6734,4.6732,4.6735,4.6792,4.6794,4.6795,4.6796,0,4.6567,4.6563,4.659,4.6615,4.6637,4.6656,4.6673,4.669,4.6677,4.6699,4.673,4.6747,4.678,4.6808,4.683,4.6835,4.6813,4.6811,4.6821,4.6827,4.6829,4.6828,4.668,4.6807,4.6806,4.6805,4.6805,4.6804,4.6652,4.6682,4.6695,4.6726,4.6737,4.6753,4.678,4.6781,4.6807,4.6834,4.6824,4.6859,4.687,4.6898,4.6905,4.6932,4.6913,4.6929,4.6933,4.6937,4.6942,4.6825,4.6936,4.6936,4.6935,4.6935,4.6935,0,4.6766,4.6773,4.6802,4.6826,4.685,4.6829,4.6846,4.6867,4.6899,4.6911,4.6934,4.6969,4.6996,4.6996,4.7021,4.7042,4.7033,4.7049,4.7047,4.7048,4.6958,4.6946,4.7056,4.7056,4.7056,4.7056,4.7056,4.7056,4.6828,4.6878,4.6875,4.6929,4.6935,4.6971,4.6982,4.6996,4.7007,4.7048,4.707,4.7071,4.7078,4.7103,4.7127,4.7126,4.7136,4.7156,4.7151,4.7067,4.7055,4.7043,4.7032,4.7158,4.7158,4.7239,4.724,4.724]}]]